TimeEST,TemperatureF,Dew PointF,Humidity,Sea Level PressureIn,VisibilityMPH,Wind Direction,Wind SpeedMPH,Gust SpeedMPH,PrecipitationIn,Events,Conditions,WindDirDegrees,DateUTC
12:00 AM,19.9,16.0,85,29.78,3.0,Calm,Calm,-,N/A,,Mostly Cloudy,0,2014-02-14 05:00:00
12:53 AM,19.9,15.1,81,29.80,3.0,Calm,Calm,-,N/A,,Haze,0,2014-02-14 05:53:00
1:53 AM,19.9,16.0,85,29.81,5.0,Calm,Calm,-,N/A,,Overcast,0,2014-02-14 06:53:00
2:53 AM,26.1,21.0,81,29.79,10.0,SW,8.1,-,N/A,,Partly Cloudy,230,2014-02-14 07:53:00
3:53 AM,24.1,19.9,84,29.78,10.0,WSW,5.8,-,N/A,,Clear,240,2014-02-14 08:53:00
4:53 AM,21.0,18.0,88,29.79,7.0,North,3.5,-,N/A,,Clear,360,2014-02-14 09:53:00
5:53 AM,18.0,12.9,81,29.81,5.0,Calm,Calm,-,N/A,,Haze,0,2014-02-14 10:53:00
6:53 AM,17.1,10.9,77,29.85,5.0,Calm,Calm,-,N/A,,Haze,0,2014-02-14 11:53:00
7:53 AM,17.1,12.9,84,29.86,10.0,Calm,Calm,-,N/A,,Clear,0,2014-02-14 12:53:00
8:53 AM,21.0,19.9,96,29.86,10.0,Calm,Calm,-,N/A,,Clear,0,2014-02-14 13:53:00
9:53 AM,28.0,27.0,96,29.85,10.0,Calm,Calm,-,N/A,,Clear,0,2014-02-14 14:53:00
10:53 AM,35.1,25.0,67,29.85,10.0,Calm,Calm,-,N/A,,Clear,0,2014-02-14 15:53:00
11:53 AM,39.0,26.1,60,29.83,10.0,SW,8.1,-,N/A,,Clear,230,2014-02-14 16:53:00
12:53 PM,42.1,26.1,53,29.82,10.0,WSW,9.2,-,N/A,,Scattered Clouds,240,2014-02-14 17:53:00
1:53 PM,43.0,27.0,53,29.78,10.0,SW,6.9,-,N/A,,Mostly Cloudy,230,2014-02-14 18:53:00
2:53 PM,45.0,27.0,49,29.73,10.0,SSW,8.1,-,N/A,,Mostly Cloudy,200,2014-02-14 19:53:00
3:53 PM,45.0,28.0,52,29.71,10.0,SW,9.2,-,N/A,,Mostly Cloudy,220,2014-02-14 20:53:00
4:53 PM,44.1,28.9,55,29.71,10.0,SW,4.6,-,N/A,,Overcast,230,2014-02-14 21:53:00
5:53 PM,45.0,27.0,49,29.69,10.0,WNW,3.5,-,N/A,,Overcast,290,2014-02-14 22:53:00
6:53 PM,39.9,28.0,63,29.69,10.0,Calm,Calm,-,N/A,,Overcast,0,2014-02-14 23:53:00
7:53 PM,37.9,28.9,70,29.67,10.0,Calm,Calm,-,N/A,,Overcast,0,2014-02-15 00:53:00
8:53 PM,41.0,28.0,60,29.69,10.0,West,4.6,-,0.00,,Overcast,260,2014-02-15 01:53:00
9:53 PM,41.0,28.9,62,29.65,10.0,NNE,3.5,-,N/A,,Overcast,30,2014-02-15 02:53:00
10:53 PM,37.0,30.0,76,29.63,10.0,Calm,Calm,-,0.00,Rain,Light Rain,0,2014-02-15 03:53:00
11:53 PM,39.0,30.9,73,29.61,10.0,NNW,4.6,-,0.00,,Overcast,330,2014-02-15 04:53:00